Location: ????????
(56.1167°N, 38.6333°E)
Time: 07:49:10
(UTC+00:00)

Cosmos 921 Rocket - Pass Details

Date: 18 November 2025
Orbit: 563 x 621 km, 75.8° (Epoch: 14 December)

Event Time Altitude Azimuth Distance (km) Brightness Sun altitude
Rises 14:17:58 0° 207° (SSW) 2,849 7.3 -8.9°
Reaches altitude 10° 14:20:11 10° 208° (SSW) 1,958 6.4 -9.2°
Maximum altitude 14:24:33 79° 294° (WNW) 633 3.2 -9.8°
Drops below altitude 10° 14:29:02 10° 23° (NNE) 1,998 5.3 -10.4°
Enters shadow 14:30:14 - 24° (NNE) 2,476 5.7 -10.5°
